Weather Roundup
Issued by NWS Corpus Christi, TX

Home | Current Version | Previous Version | Text Only | Print | Product List | Glossary On
Versions: 1 2 3 4 5 6 7 8 9 10 11 12 13 14 15 16 17 18 19 20 21 22 23 24 25 26 27 28 29 30 31 32 33 34 35 36 37 38 39 40 41 42 43 44 45 46 47 48 49 50
000
ASUS44 KCRP 050810
HRRCRP

SOUTH TEXAS REGIONAL WEATHER ROUNDUP
NATIONAL WEATHER SERVICE CORPUS CHRISTI TX
300 AM CDT SAT SEP 05 2015


TXZ229>244-050900-
...CORPUS CHRISTI AREA OBSERVATIONS...

CITY           SKY/WX    TMP DP  RH WIND       PRES   REMARKS
CORPUS CHRISTI PTCLDY    80  77  90 SE6       29.93R
NAS CORPUS CHR PTCLDY    83  79  88 S10       29.92S HX  94
ROCKPORT       PTCLDY    84  78  82 S10       29.93S HX  95
KINGSVILLE NAS CLEAR     81  81 100 SE7       29.92F HX  92
ALICE          MOCLDY    77  76  96 SE5       29.92F
FALFURRIAS     CLEAR     79  77  93 CALM      29.92S
$$

...VICTORIA AREA OBSERVATIONS...

CITY           SKY/WX    TMP DP  RH WIND       PRES   REMARKS
VICTORIA       CLEAR     78  78 100 SE6       29.95R
BEEVILLE       FAIR      72  72 100 SE6       29.94S
PLEASANTON     MOCLDY    80  75  86 SE6       29.95S
SAN ANTONIO    MOCLDY    81  74  79 S10       29.97S
$$

...LAREDO AREA OBSERVATIONS...

CITY           SKY/WX    TMP DP  RH WIND       PRES   REMARKS
LAREDO         CLEAR     82  74  77 SE12      29.93S
COTULLA        CLEAR     81  75  82 SE9       29.93R
DEL RIO        CLEAR     83  71  67 SE12      29.89F
MCALLEN        PTCLDY    83  77  82 S9        29.91S HX  92
HEBBRONVILLE   NOT AVBL
$$

...OTHER TEXAS OBSERVATIONS...

CITY           SKY/WX    TMP DP  RH WIND       PRES   REMARKS
BROWNSVILLE    CLEAR     80  77  90 S7        29.92F
HOUSTON        PTCLDY    76  74  93 CALM      29.96R
COL. STATION   CLEAR     77  75  93 S3        29.97R
AUSTIN         MOCLDY    74  72  93 CALM      29.96R
WACO           CLEAR     81  73  76 S15       29.95S
FORT WORTH     CLEAR     82  71  69 S9        29.94S
WICHITA FALLS  CLEAR     75  67  76 SE5       29.93R
LUBBOCK        PTCLDY    69  56  62 SE7       30.01F
EL PASO        MOCLDY    77  55  46 N9        30.01F
$$

...MARINE OBSERVATIONS...

STATION/POSITION TIME  SKY/WX   TEMP    WIND        PRES    VSBY  WAVE   SWELL
                                AIR SEA DIR/SP/G                  HT/PER HT/PER
                 (UTC)          (F)     (DEG/KT/KT) (MB)    (MI)  (FT/S) (FT/S)
PORT ARANSAS     0800            85 85  150/ 15/ 18 1013.9S
BUOY 90 E PORT A 0750            85 85  160/ 14/ 16 1013.9F         3/ 6
BUOY 45 SE BAFFI 0750            85 85  160/ 14/ 17 1012.9R         3/ 6
BUOY 200 E PT IS 0750            85 85  140/ 12/ 14 1014.7F         3/ 6   2/ 6
BUOY 15 E GALVES 0750            85 85  180/ 12/ 14 1014.5R         2/ 5
$$



USA.gov is the U.S. government's official web portal to all federal, state and local government web resources and services.